Total_Precipitation_Accumulation
0.12 0.35 0.84 1.15 1.63 2.00 1.80 1.30 1.02 0.72 0.59 0.61 0.51 0.50 0.63 0.94 1.45 2.61 2.96 2.40 1.77 1.64 1.80 1.95 1.94 1.91 1.81 1.81 2.07 2.17 2.12 2.11 2.16 2.31 2.42 2.53 2.54 2.42 2.30 2.30 2.39 2.58 2.67 2.71 2.91 3.08 3.21 3.14 3.18
0.22 0.56 0.98 1.40 1.83 2.05 1.72 1.10 0.79 0.65 0.54 0.55 0.49 0.51 0.74 0.88 0.99 1.74 2.24 1.98 1.42 1.31 1.47 1.63 1.75 1.70 1.59 1.61 1.71 1.87 1.95 1.92 2.06 2.36 2.55 2.67 2.60 2.43 2.34 2.25 2.35 2.57 2.77 2.89 2.92 2.93 3.06 2.96 2.86
0.37 0.62 1.07 1.44 1.48 1.52 1.34 0.93 0.68 0.55 0.57 0.70 0.67 0.59 0.93 1.11 1.09 1.65 2.00 1.46 1.20 1.22 1.41 1.58 1.54 1.42 1.32 1.26 1.38 1.62 1.77 1.90 2.08 2.27 2.46 2.57 2.48 2.41 2.32 2.27 2.40 2.68 3.11 3.20 3.02 2.84 2.68 2.61 2.53
0.42 0.70 0.94 1.09 0.95 0.78 0.78 0.69 0.56 0.51 0.54 0.64 0.72 0.81 1.13 1.12 1.08 1.40 1.55 1.22 1.13 1.14 1.13 1.19 1.29 1.22 1.18 1.17 1.25 1.42 1.57 1.81 2.10 2.29 2.45 2.61 2.61 2.55 2.46 2.43 2.61 2.93 3.25 3.21 3.02 2.80 2.49 2.29 2.09
0.47 0.78 0.92 0.89 0.78 0.68 0.58 0.54 0.48 0.55 0.61 0.66 0.71 1.03 1.39 1.31 1.09 1.15 1.19 1.03 0.89 0.88 0.85 0.90 1.03 1.04 1.09 1.09 1.17 1.36 1.63 1.77 1.85 2.18 2.58 2.76 2.75 2.81 2.72 2.67 2.85 2.99 3.08 3.01 2.89 2.59 2.35 2.17 2.06
0.56 0.63 0.69 0.76 0.72 0.62 0.52 0.42 0.38 0.49 0.64 0.77 0.83 1.08 1.66 1.57 1.22 1.08 0.88 0.82 0.71 0.67 0.79 0.91 0.99 0.98 0.99 1.01 1.15 1.38 1.63 1.74 1.84 2.08 2.34 2.53 2.62 2.69 2.76 2.81 2.97 2.96 2.91 2.73 2.54 2.27 2.18 2.12 2.08
0.54 0.45 0.42 0.49 0.54 0.52 0.46 0.40 0.37 0.44 0.61 0.77 0.81 1.23 1.79 1.87 1.40 1.05 0.90 0.87 0.89 0.84 0.95 1.10 1.14 1.13 1.17 1.27 1.37 1.50 1.65 1.79 1.92 2.03 2.10 2.26 2.40 2.45 2.55 2.68 2.84 2.86 2.71 2.43 2.36 2.24 2.17 2.08 2.00
0.36 0.33 0.30 0.32 0.37 0.49 0.42 0.33 0.35 0.46 0.52 0.59 0.74 1.17 1.65 1.65 1.39 1.25 1.36 1.33 1.41 1.23 1.14 1.19 1.32 1.42 1.34 1.37 1.58 1.71 1.75 1.79 1.84 1.86 1.98 2.14 2.34 2.47 2.63 2.69 2.93 3.04 2.82 2.47 2.53 2.41 2.16 2.06 2.06
0.21 0.41 0.36 0.26 0.27 0.32 0.28 0.33 0.33 0.32 0.38 0.52 0.72 0.97 1.26 1.24 1.26 1.53 1.88 1.78 1.84 1.67 1.38 1.27 1.18 1.32 1.45 1.48 1.57 1.79 1.83 1.89 1.98 2.12 2.26 2.48 2.68 2.67 3.01 3.07 3.40 3.42 3.10 2.86 2.86 2.62 2.37 2.18 2.24
0.16 0.31 0.24 0.14 0.12 0.15 0.20 0.28 0.32 0.38 0.60 0.90 1.09 1.21 1.40 1.64 1.65 1.77 1.85 1.78 1.81 1.79 1.61 1.48 1.42 1.35 1.45 1.48 1.73 2.12 1.96 2.08 2.30 2.65 2.81 3.05 3.18 3.19 2.87 3.44 3.94 3.91 3.72 3.50 3.42 3.14 2.69 2.33 2.33
0.11 0.13 0.11 0.11 0.09 0.11 0.17 0.21 0.28 0.44 0.85 1.22 1.49 1.59 1.67 1.96 2.14 2.13 2.18 2.19 2.10 2.04 1.83 1.64 1.61 1.68 1.63 1.77 1.78 2.07 2.32 2.55 2.66 2.75 2.92 3.17 3.10 2.98 3.01 3.54 3.90 3.90 3.79 3.81 3.92 3.63 3.05 2.95 3.10
0.04 0.04 0.06 0.08 0.07 0.08 0.13 0.19 0.33 0.60 1.06 1.22 1.45 1.64 1.68 2.10 2.22 2.22 2.64 2.75 2.36 2.10 2.10 2.02 1.96 1.97 1.99 1.83 2.01 2.06 2.15 2.38 2.65 2.87 2.89 3.05 3.42 3.44 3.46 3.71 3.65 3.75 3.81 4.25 4.07 4.08 3.75 3.40 3.18
0.03 0.04 0.05 0.06 0.06 0.06 0.11 0.21 0.33 0.57 0.82 0.96 1.16 1.35 1.39 1.90 2.25 2.51 2.99 2.94 2.65 2.46 2.42 2.29 2.25 2.32 2.30 2.30 2.37 2.15 2.28 2.41 2.56 2.81 2.96 2.99 3.33 3.55 3.67 3.79 3.77 3.37 3.35 3.74 4.10 3.96 3.94 3.87 3.68
0.04 0.05 0.07 0.07 0.08 0.09 0.10 0.21 0.39 0.65 0.76 0.99 1.01 1.20 1.44 1.84 2.15 2.58 2.90 3.11 2.97 2.74 2.62 2.48 2.46 2.57 2.63 2.64 2.78 2.73 2.53 2.68 2.61 2.88 2.95 3.02 3.17 3.44 3.73 3.85 3.90 3.50 3.31 3.55 3.86 3.80 4.02 3.89 3.85
0.05 0.10 0.14 0.12 0.12 0.13 0.14 0.38 0.67 0.79 0.85 1.04 1.20 1.33 1.56 1.94 2.44 2.70 2.94 3.20 3.21 3.14 3.00 2.83 2.77 2.91 3.13 3.29 3.32 3.21 3.00 2.76 2.77 2.90 2.96 3.07 3.09 3.43 3.52 3.59 3.69 3.65 3.42 3.55 3.73 3.79 3.96 3.76 3.57
0.08 0.13 0.20 0.21 0.16 0.15 0.23 0.73 0.88 0.78 0.96 1.20 1.30 1.52 1.83 2.24 2.66 3.13 3.27 3.17 3.17 3.29 3.26 3.04 2.83 3.26 3.65 3.79 3.83 3.62 3.34 2.96 2.91 2.96 3.04 3.15 3.25 3.43 3.67 3.46 3.46 3.78 3.63 3.76 4.15 4.09 4.18 4.29 4.10
0.12 0.20 0.21 0.26 0.21 0.19 0.32 0.86 0.85 0.68 0.87 1.12 1.32 1.52 1.96 2.48 2.82 2.96 3.01 3.19 3.31 3.38 3.36 3.34 3.45 3.59 3.77 3.89 4.03 3.80 3.57 3.35 3.10 3.02 3.01 3.14 3.26 3.41 3.83 3.88 3.94 3.90 3.86 3.93 3.61 4.15 4.47 4.57 4.40
0.15 0.16 0.23 0.25 0.23 0.28 0.38 0.64 0.73 0.76 1.02 1.15 1.43 1.63 1.79 2.19 2.63 2.72 2.83 3.26 3.34 3.50 3.64 3.61 3.73 3.93 4.24 4.43 4.63 4.28 3.90 3.62 3.36 3.17 3.24 3.28 3.49 3.60 3.95 4.04 4.06 3.86 3.97 4.03 4.05 4.47 4.44 4.17 4.18
0.06 0.13 0.25 0.26 0.26 0.36 0.45 0.63 0.82 0.91 1.16 1.49 1.71 1.67 1.64 1.95 2.42 2.79 3.09 3.18 3.51 3.71 3.89 3.91 4.17 4.61 4.97 4.81 4.50 4.35 4.13 3.90 3.65 3.38 3.29 3.36 3.35 3.51 3.90 3.81 4.19 4.05 3.89 3.86 3.88 4.24 4.31 3.98 4.15
0.04 0.10 0.21 0.27 0.26 0.40 0.55 0.78 0.92 1.11 1.39 1.53 1.44 1.42 1.56 1.95 2.46 2.84 3.10 3.21 3.47 3.75 4.17 4.31 4.53 4.92 5.09 4.94 4.81 4.68 4.56 4.16 4.05 3.89 3.73 3.35 3.17 3.29 3.32 3.70 3.58 3.68 3.87 3.80 3.97 4.25 4.09 3.72 4.19
0.06 0.12 0.20 0.25 0.34 0.49 0.63 1.09 1.23 1.37 1.53 1.56 1.46 1.64 1.64 1.72 2.15 2.44 2.55 2.71 2.88 3.03 3.28 3.58 4.11 4.65 4.86 4.93 4.82 4.79 4.83 4.39 4.14 4.01 3.86 3.46 3.18 3.08 3.19 3.39 3.50 3.63 3.56 3.70 3.91 3.94 4.00 3.91 4.04
0.08 0.11 0.12 0.17 0.31 0.60 0.71 1.40 1.58 1.73 1.90 1.77 1.65 1.57 1.54 1.77 2.09 2.10 1.92 2.06 2.32 2.31 2.62 3.04 3.53 3.91 4.15 4.24 4.25 4.31 4.29 4.22 4.13 3.98 3.63 3.40 3.17 3.05 3.11 3.24 3.35 3.45 3.30 3.48 3.31 3.41 3.89 4.03 3.86
0.07 0.10 0.13 0.18 0.32 0.59 0.66 1.07 1.62 1.96 2.15 1.78 1.63 1.48 1.54 1.75 1.78 1.74 1.74 1.85 2.00 2.15 2.46 2.78 3.13 3.44 3.61 3.71 3.80 3.92 3.82 3.86 3.75 3.59 3.40 3.20 3.05 2.91 2.71 2.85 3.10 3.20 3.10 3.05 3.13 3.38 3.48 3.44 3.48
0.07 0.13 0.22 0.31 0.52 0.94 0.84 0.95 1.50 1.86 1.72 1.50 1.42 1.22 1.33 1.50 1.58 1.62 1.71 1.82 1.95 2.25 2.60 2.88 3.13 3.37 3.44 3.22 3.13 3.18 3.24 3.30 3.26 3.12 2.96 2.75 2.71 2.64 2.49 2.55 2.83 2.94 2.91 2.89 2.92 3.05 3.09 3.13 3.17
0.11 0.24 0.72 1.16 1.48 1.38 0.87 0.98 1.58 1.47 1.15 1.07 1.16 1.15 1.15 1.17 1.30 1.40 1.59 1.78 1.98 2.09 2.17 2.60 3.03 3.22 3.12 2.86 2.68 2.63 2.78 2.90 2.84 2.72 2.65 2.57 2.44 2.40 2.42 2.46 2.61 2.64 2.60 2.54 2.65 2.74 2.80 2.99 3.10
0.16 0.27 0.79 1.11 1.20 1.18 0.97 1.37 1.88 1.46 1.02 0.87 0.97 0.98 0.88 0.81 0.77 0.85 1.04 1.15 1.30 1.34 1.36 1.53 1.82 2.07 2.15 2.05 2.07 2.14 2.19 2.27 2.28 2.48 2.33 2.32 2.26 2.16 2.22 2.23 2.23 2.26 2.26 2.24 2.59 2.62 2.72 2.92 3.02
0.26 0.31 0.33 0.57 0.80 1.20 1.24 1.45 1.58 1.29 0.99 0.96 1.04 0.95 0.77 0.73 0.67 0.74 0.86 0.91 0.99 1.01 1.05 1.20 1.44 1.69 1.74 1.74 1.81 1.85 1.87 1.93 1.98 2.03 1.99 1.96 2.03 2.00 2.01 2.02 2.16 2.16 2.22 2.38 2.59 2.58 2.65 2.90 2.95
0.22 0.31 0.46 0.74 1.00 1.17 1.28 1.67 1.87 1.67 1.36 1.16 1.14 1.02 0.79 0.68 0.65 0.72 0.83 0.86 0.95 1.06 1.21 1.34 1.44 1.55 1.56 1.55 1.57 1.52 1.63 1.67 1.72 1.70 1.65 1.67 1.76 1.79 1.83 1.89 1.99 2.07 2.13 2.27 2.49 2.49 2.57 2.72 2.77
0.26 0.34 0.50 0.69 0.75 0.99 1.42 1.59 1.36 1.29 1.26 1.32 1.28 1.10 0.83 0.67 0.63 0.69 0.82 0.86 0.92 1.05 1.18 1.32 1.42 1.53 1.51 1.45 1.51 1.57 1.59 1.64 1.61 1.58 1.50 1.58 1.68 1.74 1.76 1.85 1.98 2.02 2.07 2.24 2.41 2.37 2.47 2.49 2.49
0.25 0.35 0.51 0.78 0.83 0.86 1.05 1.25 0.88 0.88 0.99 1.08 1.09 0.88 0.70 0.63 0.65 0.72 0.83 0.88 1.01 1.07 1.14 1.18 1.29 1.42 1.43 1.44 1.56 1.77 1.75 1.74 1.70 1.56 1.51 1.56 1.60 1.65 1.69 1.81 1.90 1.89 2.02 2.22 2.32 2.31 2.47 2.54 2.51